GW0655 Weather Reports


time (UTC)temp
F
wind
direction
speed
knots
gust
knots
rain 1hr
in
rain 24hr
in
rain mn
in
humidity
%
barometer
mb
20220525131943 61 311 0.0 0.9 0.00 0.52 0.52 99 1011.8
20220525131442 62 355 0.0 0.9 0.00 0.52 0.52 99 1011.8
20220525130941 62 313 0.0 0.0 0.00 0.52 0.52 99 1011.8
20220525130439 61 303 0.0 0.9 0.00 0.52 0.52 99 1011.5
20220525125938 61 249 0.0 0.0 0.00 0.52 0.52 99 1011.8
20220525125437 61 300 0.0 0.0 0.00 0.52 0.52 99 1011.5
20220525124935 61 311 0.9 0.9 0.00 0.52 0.52 99 1011.5
20220525124434 61 309 0.0 0.9 0.00 0.52 0.52 99 1011.5
20220525123934 61 251 0.0 0.0 0.00 0.52 0.52 99 1011.5
20220525123432 61 237 0.0 0.0 0.00 0.52 0.52 99 1011.0
20220525122932 61 283 0.0 0.0 0.00 0.52 0.52 99 1010.7
20220525122430 61 247 0.0 0.0 0.00 0.52 0.52 99 1011.0
20220525121929 61 262 0.0 0.0 0.00 0.52 0.52 99 1010.7
20220525121427 61 295 0.0 0.9 0.00 0.52 0.52 99 1010.3
20220525120925 61 321 0.9 1.7 0.00 0.52 0.52 99 1010.3
20220525120425 61 300 0.9 0.9 0.00 0.52 0.52 99 1010.3
20220525115924 61 246 0.0 0.0 0.00 0.52 0.52 99 1010.3
20220525115424 61 300 0.0 0.0 0.00 0.52 0.52 99 1010.0
20220525114922 61 305 0.9 0.9 0.00 0.52 0.52 99 1010.0
20220525114420 61 259 0.0 0.0 0.00 0.52 0.52 99 1010.0
20220525113918 61 266 0.0 0.0 0.00 0.52 0.52 99 1010.0
20220525113417 61 275 0.0 0.9 0.00 0.52 0.52 99 1010.0
20220525112916 61 274 0.9 1.7 0.00 0.52 0.52 99 1010.0
20220525112414 61 258 0.0 0.0 0.00 0.52 0.52 99 1010.0
20220525111913 61 267 0.0 0.0 0.00 0.52 0.52 99 1009.7
20220525111412 61 266 0.0 0.0 0.00 0.52 0.52 99 1009.7
20220525110911 61 264 0.0 0.0 0.00 0.52 0.52 99 1009.7
20220525110410 61 269 0.0 0.0 0.00 0.52 0.52 99 1009.7
20220525105908 61 268 0.0 0.0 0.00 0.52 0.52 99 1009.7
20220525105407 61 267 0.0 0.0 0.00 0.52 0.52 99 1009.7
20220525104906 61 267 0.0 0.0 0.00 0.52 0.52 99 1009.7
20220525104405 61 266 0.0 0.0 0.00 0.52 0.52 99 1009.7
20220525103904 61 262 0.0 0.0 0.00 0.52 0.52 99 1010.0
20220525103403 61 253 0.0 0.0 0.00 0.52 0.52 99 1010.0
20220525102901 62 254 0.0 0.0 0.00 0.52 0.52 99 1009.7
20220525102359 62 264 0.9 1.7 0.00 0.52 0.52 99 1010.3
20220525101858 62 246 0.0 0.0 0.00 0.52 0.52 99 1010.0
20220525101357 62 258 0.0 0.0 0.00 0.52 0.52 99 1010.3
20220525100855 62 254 0.0 0.0 0.00 0.52 0.52 99 1010.3
20220525100355 62 264 0.0 0.0 0.00 0.52 0.52 99 1010.0
20220525095853 62 252 0.9 0.9 0.01 0.52 0.52 99 1010.0
20220525095352 62 254 0.0 0.0 0.01 0.52 0.52 99 1010.0
20220525094851 62 240 0.0 0.0 0.01 0.52 0.52 99 1009.7
20220525094351 62 307 0.9 0.9 0.01 0.52 0.52 99 1009.7
20220525093849 62 262 0.9 0.9 0.01 0.52 0.52 99 1009.3
20220525093349 62 277 1.7 2.6 0.01 0.52 0.52 99 1009.3
20220525092845 61 173 0.9 0.9 0.01 0.52 0.52 99 1008.6
20220525092344 61 227 0.9 1.7 0.01 0.52 0.52 99 1008.3
20220525091842 61 313 2.6 2.6 0.00 0.51 0.51 99 1007.6
20220525091340 61 207 0.0 0.0 0.00 0.51 0.51 99 1006.6
20220525090839 61 139 1.7 2.6 0.00 0.51 0.51 99 1006.3
20220525090337 61 193 1.7 1.7 0.00 0.51 0.51 99 1006.3
20220525085836 61 166 3.5 5.2 0.00 0.51 0.51 99 1005.9
20220525085334 61 173 1.7 2.6 0.00 0.51 0.51 99 1005.6
20220525084833 61 124 2.6 4.3 0.00 0.51 0.51 99 1005.9
20220525084331 61 144 1.7 1.7 0.00 0.51 0.51 99 1005.6
20220525083830 61 102 3.5 4.3 0.00 0.51 0.51 99 1005.9
20220525083329 61 63 4.3 7.0 0.00 0.51 0.51 99 1005.6
20220525082827 61 143 2.6 4.3 0.00 0.51 0.51 99 1006.3
20220525082325 61 113 3.5 5.2 0.00 0.51 0.51 99 1006.6
20220525081824 61 152 2.6 4.3 0.00 0.51 0.51 99 1008.0
20220525081323 61 174 1.7 2.6 0.00 0.51 0.51 99 1009.3
20220525080821 61 95 0.9 1.7 0.00 0.51 0.51 99 1009.0
20220525080321 61 137 0.9 0.9 0.00 0.51 0.51 99 1009.0
20220525075819 61 107 2.6 2.6 0.12 0.51 0.51 99 1009.0
20220525075318 61 60 0.0 0.9 0.12 0.51 0.51 99 1008.6
20220525074816 61 68 0.9 1.7 0.12 0.51 0.51 99 1008.6
20220525074315 62 141 4.3 6.1 0.12 0.51 0.51 99 1009.0
20220525073814 62 46 2.6 4.3 0.12 0.51 0.51 99 1009.3
20220525073313 62 60 2.6 2.6 0.12 0.51 0.51 99 1009.3
20220525072811 57 67 1.7 1.7 0.11 0.50 0.50 99 1009.7
20220525072310 62 61 2.6 2.6 0.09 0.48 0.48 99 1010.7
20220525071809 62 66 1.7 1.7 0.07 0.46 0.46 99 1011.5
20220525071308 62 117 0.0 0.0 0.04 0.43 0.43 99 1011.8
20220525070806 62 151 0.0 0.0 0.03 0.42 0.42 99 1012.1
20220525070305 62 151 0.0 0.0 0.01 0.40 0.40 99 1012.5
20220525065804 57 245 0.0 0.0 0.14 0.39 0.39 99 1012.8
20220525065300 62 236 0.0 0.0 0.12 0.37 0.37 99 1013.5
20220525064801 62 213 0.9 0.9 0.09 0.34 0.34 99 1013.8
20220525064257 62 235 1.7 1.7 0.08 0.33 0.33 99 1013.5
20220525063756 62 271 0.9 0.9 0.07 0.32 0.32 99 1013.5
20220525063254 62 284 0.0 0.0 0.06 0.31 0.31 99 1013.1
20220525062753 62 299 0.0 0.9 0.04 0.29 0.29 99 1012.8
20220525062252 62 324 0.0 0.0 0.03 0.28 0.28 99 1012.5
20220525061751 62 319 0.0 0.0 0.03 0.28 0.28 99 1012.5
20220525061249 62 328 0.0 0.0 0.02 0.27 0.27 99 1012.5
20220525060749 62 347 0.9 0.9 0.01 0.26 0.26 99 1012.5
20220525060247 62 9 0.0 0.0 0.00 0.25 0.25 99 1012.1
20220525055747 62 353 3.5 4.3 0.24 0.24 0.24 99 1011.8
20220525055247 62 354 7.0 7.8 0.24 0.24 0.24 99 1010.7
20220525054745 62 33 5.2 7.0 0.22 0.22 0.22 99 1010.7
20220525054244 62 1 4.3 5.2 0.20 0.20 0.20 99 1010.7
20220525053743 62 350 3.5 4.3 0.19 0.19 0.19 99 1011.0
20220525053242 61 7 3.5 4.3 0.18 0.18 0.18 99 1011.0
20220525052740 61 10 4.3 6.1 0.16 0.16 0.16 99 1011.0
20220525052238 61 5 3.5 4.3 0.15 0.15 0.15 99 1011.0
20220525051735 61 0 3.5 5.2 0.14 0.14 0.14 99 1010.7
20220525051235 61 327 1.7 1.7 0.10 0.10 0.10 99 1011.0
20220525050733 61 320 1.7 1.7 0.05 0.05 0.05 99 1010.7
20220525050232 61 313 2.6 2.6 0.02 0.02 0.02 98 1010.7
20220525045732 61 21 0.9 0.9 1.15 1.15 1.15 98 1009.7
20220525045231 61 29 1.7 1.7 1.11 1.11 1.11 98 1008.3
20220525044730 61 14 4.3 6.1 1.02 1.02 1.02 97 1008.0
20220525044229 62 36 3.5 5.2 0.83 0.83 0.83 96 1009.0
20220525043729 63 26 3.5 7.0 0.45 0.45 0.45 95 1009.3
20220525043228 65 318 4.3 6.1 0.11 0.11 0.11 92 1010.7
20220525042726 71 5 3.5 5.2 0.01 0.01 0.01 83 1010.3
20220525042224 74 16 3.5 5.2 0.00 0.00 0.00 70 1010.0
20220525041723 75 43 6.1 8.7 0.00 0.00 0.00 69 1007.0
20220525041223 77 37 1.7 2.6 0.00 0.00 0.00 69 1007.0
20220525040722 78 67 2.6 2.6 0.00 0.00 0.00 73 1006.6
20220525040220 78 22 1.7 1.7 0.00 0.00 0.00 73 1006.6
20220525035718 79 44 0.9 1.7 0.00 0.00 0.00 72 1006.6
20220525035217 79 7 0.0 0.0 0.00 0.00 0.00 72 1006.6
20220525034717 79 37 0.9 0.9 0.00 0.00 0.00 71 1006.6
20220525034215 79 42 1.7 1.7 0.00 0.00 0.00 71 1007.0
20220525033715 79 42 0.0 0.0 0.00 0.00 0.00 71 1006.3
20220525033213 79 52 2.6 2.6 0.00 0.00 0.00 70 1006.3
20220525032711 79 84 0.9 1.7 0.00 0.00 0.00 70 1006.3
20220525032209 79 44 1.7 1.7 0.00 0.00 0.00 70 1005.9
20220525031708 79 68 2.6 4.3 0.00 0.00 0.00 71 1006.3
20220525031207 79 52 0.9 1.7 0.00 0.00 0.00 70 1005.9
20220525030705 79 51 0.9 1.7 0.00 0.00 0.00 69 1005.9
20220525030205 79 51 0.9 0.9 0.00 0.00 0.00 69 1005.6
20220525025704 80 116 1.7 1.7 0.00 0.00 0.00 69 1005.3
20220525025203 80 126 2.6 4.3 0.00 0.00 0.00 68 1004.9
20220525024701 80 69 1.7 2.6 0.00 0.00 0.00 68 1005.3
20220525024200 80 88 3.5 4.3 0.00 0.00 0.00 68 1005.3
20220525023658 80 101 0.9 1.7 0.00 0.00 0.00 68 1005.6
20220525023159 80 107 2.6 2.6 0.00 0.00 0.00 68 1005.6
20220525022655 80 127 1.7 1.7 0.00 0.00 0.00 67 1005.3
20220525022154 80 149 0.9 0.9 0.00 0.00 0.00 67 1004.9
20220525021652 80 137 0.9 1.7 0.00 0.00 0.00 66 1004.9
20220525021150 81 126 1.7 2.6 0.00 0.00 0.00 65 1004.9
20220525020649 81 170 0.0 0.9 0.00 0.00 0.00 64 1005.3
20220525020147 81 197 0.0 0.9 0.00 0.00 0.00 64 1005.3
20220525015646 81 99 1.7 1.7 0.00 0.00 0.00 63 1005.3
20220525015144 82 61 1.7 1.7 0.00 0.00 0.00 62 1005.3
20220525014642 82 163 1.7 1.7 0.00 0.00 0.00 62 1005.3
20220525014142 82 156 0.9 1.7 0.00 0.00 0.00 61 1005.6
20220525013640 82 171 0.9 0.9 0.00 0.00 0.00 61 1005.3
20220525013138 82 110 1.7 2.6 0.00 0.00 0.00 61 1005.3
20220525012638 83 141 1.7 1.7 0.00 0.00 0.00 60 1005.3
20220525012137 83 195 0.9 0.9 0.00 0.00 0.00 60 1004.9
20220525011636 83 178 0.9 0.9 0.00 0.00 0.00 60 1004.9
20220525011135 83 165 0.0 0.0 0.00 0.00 0.00 60 1004.9
20220525010634 83 178 0.0 0.9 0.00 0.00 0.00 59 1004.5
20220525010132 83 192 1.7 1.7 0.00 0.00 0.00 58 1004.5
20220525005632 83 173 1.7 2.6 0.00 0.00 0.00 58 1004.9
20220525005130 83 166 2.6 4.3 0.00 0.00 0.00 58 1004.5
20220525004626 83 179 2.6 2.6 0.00 0.00 0.00 58 1004.5
20220525004125 84 160 2.6 6.1 0.00 0.00 0.00 58 1004.5
20220525003625 84 190 2.6 2.6 0.00 0.00 0.00 57 1004.1
20220525003124 84 165 4.3 6.1 0.00 0.00 0.00 56 1004.1
20220525002624 84 188 4.3 7.0 0.00 0.00 0.00 56 1004.1
20220525002122 84 195 2.6 2.6 0.00 0.00 0.00 56 1003.8
20220525001620 84 145 4.3 6.1 0.00 0.00 0.00 56 1003.8
20220525001120 84 183 2.6 5.2 0.00 0.00 0.00 56 1004.1
20220525000618 84 144 7.8 9.6 0.00 0.00 0.00 56 1003.8
20220525000117 84 187 3.5 6.1 0.00 0.00 0.00 58 1003.8
20220524235615 85 207 2.6 4.3 0.00 0.00 0.00 57 1003.5
20220524235113 85 189 2.6 2.6 0.00 0.00 0.00 59 1003.5
20220524234613 85 213 2.6 2.6 0.00 0.00 0.00 58 1004.1
20220524234109 85 182 7.0 8.7 0.00 0.00 0.00 56 1003.8
20220524233608 85 151 4.3 6.1 0.00 0.00 0.00 57 1003.8
20220524233108 85 140 2.6 5.2 0.00 0.00 0.00 56 1004.1
20220524232608 85 155 2.6 4.3 0.00 0.00 0.00 57 1003.8
20220524232108 85 131 2.6 2.6 0.00 0.00 0.00 56 1004.1
20220524231607 85 154 2.6 4.3 0.00 0.00 0.00 56 1004.5
20220524231106 86 164 3.5 5.2 0.00 0.00 0.00 56 1004.1
20220524230605 85 198 2.6 5.2 0.00 0.00 0.00 57 1004.1
20220524230103 85 171 4.3 7.0 0.00 0.00 0.00 56 1004.1
20220524225601 85 206 4.3 5.2 0.00 0.00 0.00 57 1004.1
20220524225101 86 135 3.5 5.2 0.00 0.00 0.00 57 1004.1
20220524224600 86 214 2.6 2.6 0.00 0.00 0.00 57 1004.5
20220524224058 86 130 1.7 4.3 0.00 0.00 0.00 57 1004.5
20220524223557 86 149 1.7 2.6 0.00 0.00 0.00 57 1004.5
20220524223057 86 182 5.2 7.0 0.00 0.00 0.00 56 1004.9
20220524222555 85 221 6.1 7.8 0.00 0.00 0.00 57 1004.9
20220524222055 86 208 6.1 7.0 0.00 0.00 0.00 57 1004.9
20220524221553 86 176 3.5 6.1 0.00 0.00 0.00 54 1005.3
20220524221052 86 239 5.2 7.8 0.00 0.00 0.00 56 1005.3
20220524220552 86 185 3.5 4.3 0.00 0.00 0.00 54 1005.3
20220524220051 86 215 3.5 4.3 0.00 0.00 0.00 56 1005.3
20220524215547 87 169 2.6 4.3 0.00 0.00 0.00 57 1005.3
20220524215048 87 100 4.3 8.7 0.00 0.00 0.00 54 1005.9
20220524214546 86 131 2.6 5.2 0.00 0.00 0.00 56 1005.6
20220524214046 86 188 6.1 11.3 0.00 0.00 0.00 57 1005.6
20220524213544 86 184 3.5 4.3 0.00 0.00 0.00 56 1005.9
20220524213044 86 116 6.1 9.6 0.00 0.00 0.00 55 1005.9
20220524212543 86 180 3.5 7.0 0.00 0.00 0.00 56 1005.6
20220524212042 85 193 3.5 4.3 0.00 0.00 0.00 57 1005.9
20220524211540 86 192 4.3 7.8 0.00 0.00 0.00 56 1005.9
20220524211039 86 211 1.7 4.3 0.00 0.00 0.00 57 1005.9
20220524210538 86 169 0.9 1.7 0.00 0.00 0.00 56 1006.3
20220524210036 86 143 5.2 7.0 0.00 0.00 0.00 56 1006.3
20220524205534 86 138 4.3 4.3 0.00 0.00 0.00 56 1006.3
20220524205034 85 182 0.9 1.7 0.00 0.00 0.00 58 1006.3
20220524204532 85 188 5.2 8.7 0.00 0.00 0.00 57 1006.3
20220524204031 85 157 6.1 9.6 0.00 0.00 0.00 56 1006.6
20220524203530 85 198 4.3 7.0 0.00 0.00 0.00 57 1006.6
20220524203030 85 169 5.2 7.0 0.00 0.00 0.00 57 1006.6
20220524202530 85 181 4.3 7.0 0.00 0.00 0.00 55 1006.3
20220524202030 85 181 3.5 5.2 0.00 0.00 0.00 55 1006.6
20220524201529 84 134 3.5 4.3 0.00 0.00 0.00 56 1006.6
20220524201029 85 191 4.3 6.1 0.00 0.00 0.00 56 1007.0
20220524200528 86 200 5.2 7.0 0.00 0.00 0.00 55 1006.6
20220524200027 87 180 5.2 7.0 0.00 0.00 0.00 53 1007.0
20220524195526 87 195 3.5 6.1 0.00 0.00 0.00 53 1007.0
20220524195025 86 208 5.2 6.1 0.00 0.00 0.00 52 1007.0
20220524194524 86 96 2.6 4.3 0.00 0.00 0.00 53 1007.0
20220524194022 86 154 2.6 2.6 0.00 0.00 0.00 53 1007.0
20220524193521 86 182 5.2 7.0 0.00 0.00 0.00 51 1007.3
20220524193022 86 180 5.2 6.1 0.00 0.00 0.00 51 1007.3
20220524192520 86 177 2.6 4.3 0.00 0.00 0.00 51 1007.3
20220524192019 86 115 2.6 2.6 0.00 0.00 0.00 51 1007.0
20220524191518 86 130 7.0 8.7 0.00 0.00 0.00 51 1007.3
20220524191017 86 172 4.3 6.1 0.00 0.00 0.00 51 1007.3
20220524190516 86 167 4.3 6.1 0.00 0.00 0.00 52 1007.3
20220524190015 86 191 7.8 8.7 0.00 0.00 0.00 54 1007.3
20220524185513 86 163 4.3 5.2 0.00 0.00 0.00 56 1007.3
20220524185013 85 152 3.5 4.3 0.00 0.00 0.00 56 1007.3
20220524184511 86 98 4.3 7.0 0.00 0.00 0.00 56 1007.3
20220524184009 85 179 2.6 4.3 0.00 0.00 0.00 59 1007.3
20220524183508 85 179 5.2 7.0 0.00 0.00 0.00 58 1007.3
20220524183006 85 167 4.3 6.1 0.00 0.00 0.00 59 1007.3
20220524182505 85 186 2.6 2.6 0.00 0.00 0.00 60 1007.3
20220524182005 85 86 2.6 4.3 0.00 0.00 0.00 60 1007.3
20220524181505 85 74 6.1 7.0 0.00 0.00 0.00 60 1007.3
20220524181004 84 201 3.5 5.2 0.00 0.00 0.00 63 1007.3
20220524180503 84 112 6.1 7.8 0.00 0.00 0.00 61 1007.3
20220524180001 84 186 4.3 6.1 0.00 0.00 0.00 62 1007.3
20220524175501 84 200 3.5 5.2 0.00 0.00 0.00 62 1007.6
20220524175000 84 124 0.9 0.9 0.00 0.00 0.00 64 1007.6
20220524174459 84 113 4.3 7.0 0.00 0.00 0.00 64 1007.6
20220524173958 84 183 2.6 4.3 0.00 0.00 0.00 66 1007.6
20220524173456 84 169 0.9 1.7 0.00 0.00 0.00 67 1007.3
20220524172955 83 193 1.7 2.6 0.00 0.00 0.00 67 1007.6
20220524172454 83 182 4.3 5.2 0.00 0.00 0.00 67 1007.6
20220524171952 83 187 2.6 4.3 0.00 0.00 0.00 66 1008.0
20220524171451 82 264 1.7 1.7 0.00 0.00 0.00 67 1008.0
20220524170948 82 184 3.5 4.3 0.00 0.00 0.00 69 1008.0
20220524170446 81 207 0.9 1.7 0.00 0.00 0.00 69 1008.0
20220524165945 82 145 3.5 5.2 0.00 0.00 0.00 68 1008.0
20220524165443 82 147 2.6 4.3 0.00 0.00 0.00 68 1008.0
20220524164941 82 198 3.5 4.3 0.00 0.00 0.00 68 1008.3
20220524164440 82 143 4.3 6.1 0.00 0.00 0.00 67 1008.3
20220524163939 82 182 2.6 4.3 0.00 0.00 0.00 67 1008.3
20220524163438 81 167 3.5 5.2 0.00 0.00 0.00 68 1008.3
20220524162937 81 208 5.2 6.1 0.00 0.00 0.00 69 1008.3
20220524162435 81 177 4.3 7.0 0.00 0.00 0.00 68 1008.6
20220524161933 81 194 4.3 6.1 0.00 0.00 0.00 67 1008.6
20220524161432 81 198 4.3 6.1 0.00 0.00 0.00 68 1008.6
20220524160928 80 182 4.3 6.1 0.00 0.00 0.00 70 1008.6
20220524160428 80 197 4.3 5.2 0.00 0.00 0.00 71 1008.6
20220524155928 80 164 4.3 5.2 0.00 0.00 0.00 72 1008.3
20220524155427 80 180 4.3 5.2 0.00 0.00 0.00 72 1008.3
20220524154925 79 207 2.6 2.6 0.00 0.00 0.00 74 1008.6
20220524154424 79 209 5.2 7.8 0.00 0.00 0.00 74 1008.6
20220524153924 79 149 2.6 4.3 0.00 0.00 0.00 77 1009.0
20220524153423 80 160 2.6 4.3 0.00 0.00 0.00 80 1009.0
20220524152923 79 134 0.9 0.9 0.00 0.00 0.00 81 1008.6
20220524152421 79 117 0.9 1.7 0.00 0.00 0.00 83 1009.0
20220524151920 78 161 2.6 4.3 0.00 0.00 0.00 84 1009.0
20220524151418 78 192 2.6 2.6 0.00 0.00 0.00 83 1009.3
20220524150916 78 166 3.5 5.2 0.00 0.00 0.00 84 1009.0
20220524150414 78 116 4.3 7.0 0.00 0.00 0.00 85 1009.3
20220524145912 78 141 2.6 4.3 0.00 0.00 0.00 85 1009.3
20220524145409 77 141 0.9 0.9 0.00 0.00 0.00 87 1009.0
20220524144908 77 141 3.5 5.2 0.00 0.00 0.00 87 1009.3
20220524144406 77 199 3.5 5.2 0.00 0.00 0.00 87 1009.0
20220524143904 76 104 2.6 2.6 0.00 0.00 0.00 88 1009.3
20220524143403 76 188 1.7 1.7 0.00 0.00 0.00 90 1009.3
20220524142903 76 119 3.5 6.1 0.00 0.00 0.00 90 1009.3
20220524142401 76 188 1.7 1.7 0.00 0.00 0.00 90 1009.3
20220524141900 75 122 2.6 2.6 0.00 0.00 0.00 91 1009.3
20220524141358 75 126 2.6 4.3 0.00 0.00 0.00 91 1009.0
20220524140857 75 107 2.6 4.3 0.00 0.00 0.00 91 1009.3
20220524140355 75 119 2.6 2.6 0.00 0.00 0.00 91 1009.3
20220524135853 75 104 0.9 1.7 0.00 0.00 0.00 92 1009.3
20220524135351 74 129 1.7 2.6 0.00 0.00 0.00 93 1009.3
20220524134850 74 143 0.9 0.9 0.00 0.00 0.00 93 1009.3
20220524134349 73 135 0.9 0.9 0.00 0.00 0.00 94 1009.0
20220524133849 73 158 0.0 0.9 0.00 0.00 0.00 94 1009.0
20220524133348 73 62 0.0 0.9 0.00 0.00 0.00 94 1009.0
20220524132847 73 74 0.9 1.7 0.00 0.00 0.00 95 1009.0
20220524132345 73 86 1.7 1.7 0.00 0.00 0.00 95 1009.0